log

age author description
Fri, 24 May 2013 15:26:57 +0100 mcimadamore 8014643: Parser regression in JDK 8 when compiling super.x
Thu, 23 May 2013 10:36:42 -0700 wmdietl Automated merge with http://hg.openjdk.java.net/jdk8/tl/langtools
Wed, 22 May 2013 13:34:03 -0700 darcy 8010680: Clarify "present" and annotation ordering in javax.lang.model
Wed, 22 May 2013 22:51:32 -0700 wmdietl Whitespace fixes only.
Wed, 22 May 2013 12:26:17 -0700 wmdietl Automated merge with http://hg.openjdk.java.net/jdk8/tl/langtools
Wed, 22 May 2013 09:59:05 -0700 lana Merge
Fri, 17 May 2013 10:13:34 -0700 lana Mergejdk8-b91
Thu, 16 May 2013 12:16:07 -0700 katleman Added tag jdk8-b90 for changeset e19283cd30a4
Thu, 09 May 2013 10:04:34 -0700 katleman Added tag jdk8-b89 for changeset ec434cfd2752jdk8-b90
Tue, 21 May 2013 14:33:09 +0100 vromero 7164114: Two jtreg tests are not run due to no file extension on the test files
Tue, 21 May 2013 13:50:56 +0100 vromero 8005207: test has 2 @bug tags
Tue, 21 May 2013 12:17:18 +0100 vromero 7060779: test/tools/javac/diags/Example.java leaves directories in tempdir
Tue, 21 May 2013 11:41:21 +0100 vromero 7177168: Redundant array copy in UnsharedNameTable
Tue, 21 May 2013 12:00:29 +0200 jfranck 8013180: Qualified type reference with annotations in throws list crashes compiler
Sun, 19 May 2013 07:36:19 -0700 wmdietl Automated merge with http://hg.openjdk.java.net/jdk8/tl/langtools
Fri, 17 May 2013 13:48:41 -0700 jjg 6885876: add comments to javac/util/Convert.java
Thu, 16 May 2013 01:45:01 -0700 wmdietl Automated merge with http://hg.openjdk.java.net/jdk8/tl/langtools
Wed, 15 May 2013 10:39:26 -0700 jjg 8006879: Detection of windows in sjavac fails.
Wed, 15 May 2013 06:53:01 -0700 rfield 8010006: NPE in javac with interface super in lambda
Wed, 15 May 2013 14:03:09 +0100 mcimadamore 8013222: Javac issues spurious raw type warnings when lambda has implicit parameter types
Wed, 15 May 2013 14:02:37 +0100 mcimadamore 8012685: Spurious raw types warning when using unbound method references
Wed, 15 May 2013 14:00:31 +0100 mcimadamore 8012003: Method diagnostics resolution need to be simplified in some cases
Wed, 15 May 2013 05:23:53 -0700 wmdietl Automated merge with http://hg.openjdk.java.net/jdk8/tl/langtools
Wed, 15 May 2013 00:00:39 -0700 darcy 8004133: Provide javax.lang.model.* implementation backed by core reflection
Tue, 14 May 2013 21:12:47 -0700 jjg Merge
Tue, 14 May 2013 21:08:40 -0700 jjg 8014323: Add VariableTree.getNameExpression
Tue, 14 May 2013 18:02:48 -0700 sogoel 8013163: Convert 4 tools multicatch tests to jtreg format
Tue, 14 May 2013 15:44:02 -0700 jjg Merge
Tue, 14 May 2013 15:04:06 -0700 jjg 8013852: update reference impl for type-annotations
Tue, 14 May 2013 14:09:15 -0700 jjg Merge
Tue, 14 May 2013 13:55:35 -0700 jjg 8014557: Mutable static field in HtmlDocletWriter
Tue, 14 May 2013 13:07:22 -0700 jjg Merge
Tue, 14 May 2013 12:55:15 -0700 jjg 8014461: genstubs creates default native methods
Tue, 14 May 2013 11:11:09 -0700 rfield 8012556: Implement lambda methods on interfaces as static
Tue, 14 May 2013 10:14:57 -0700 jjg 8012308: Remove TagletOutput in favor of direct use of Content
Tue, 14 May 2013 10:14:56 -0700 jjg 8012311: Cleanup names and duplicatre code in TagletManager
Tue, 14 May 2013 10:14:56 -0700 jjg 8012295: Cleanup JavaFX features in standard doclet
Tue, 14 May 2013 10:14:56 -0700 jjg 8012180: Speed up removeNonInlineHtmlTags
Tue, 14 May 2013 10:14:55 -0700 jjg 8012183: replace some uses of Configuration.getText with Configuration.getResource
Tue, 14 May 2013 10:14:55 -0700 jjg 8012178: Cleanup use of Util.escapeHtmlChars
Tue, 14 May 2013 10:14:55 -0700 jjg 8012177: HTMLDocletWriter methods should generate Content, not Strings
Tue, 14 May 2013 10:14:54 -0700 jjg 8012176: reduce use of TagletOutputImpl.toString
Tue, 14 May 2013 10:14:54 -0700 jjg 8012175: Convert TagletOutputImpl to use ContentBuilder instead of StringBuilder
Tue, 14 May 2013 10:14:54 -0700 jjg 8012174: {@literal} and {@code} should use \"new\" Taglet, not old.
Tue, 14 May 2013 10:14:53 -0700 jjg 8011288: Erratic/inconsistent indentation of signatures
Tue, 14 May 2013 10:14:53 -0700 jjg 8011668: Allow HTMLWriter.getResource to take Content args
Tue, 14 May 2013 10:14:53 -0700 jjg 8011662: Remove single instance of resource with HTML from doclet resource bundle
Tue, 14 May 2013 10:14:52 -0700 jjg 8011651: simplify LinkInfoImpl API
Tue, 14 May 2013 10:14:52 -0700 jjg 8011650: reduce use of RawHtml nodes in doclet
Tue, 14 May 2013 10:14:52 -0700 jjg 8011642: Remove LinkOutput in favor of direct use of Content
Tue, 14 May 2013 10:14:51 -0700 jjg 8010440: Replace int constants in LinkInfoImpl with enum
Tue, 14 May 2013 07:29:48 -0700 wmdietl Automated merge with http://hg.openjdk.java.net/jdk8/tl/langtools
Fri, 10 May 2013 15:15:50 +0200 jlahoda 8012929: Trees.getElement should work not only for declaration trees, but also for use-trees
Sun, 12 May 2013 18:37:57 -0700 jjg update merge error
Sun, 12 May 2013 18:25:34 -0700 jjg Merge
Sun, 12 May 2013 18:18:54 -0700 jjg 8014363: javac test class ToolTester handles classpath incorrectly
Fri, 10 May 2013 14:31:42 -0700 darcy 8014365: Restore Objects.requireNonNull(T, Supplier<String>)
Sun, 12 May 2013 17:03:08 -0700 jjg Improve checking for receiver parameter name
Fri, 10 May 2013 13:51:47 -0700 jjg prefix fix for 8014363 ToolTester problem
Fri, 10 May 2013 10:51:01 -0700 jjg Merge